Tracking 23752 objects as of 24-Oct-2021
HD Live streaming from Space Station
objects crossing your sky now

FREGAT DEB

Track FREGAT DEB now!
10-day predictions


NORAD ID: 45822
Int'l Code: 2011-037BG
Perigee: 542.0 km
Apogee: 3,359.0 km
Inclination: 51.5 °
Period: 125.9 minutes
Semi major axis: 8321 km
RCS: Unknown
Launch date: July 18, 2011
Source: Commonwealth of Independent States (former USSR) (CIS)
Launch site: TYURATAM MISSILE AND SPACE COMPLEX (TTMTR)

Note: This is SATELLITE DEBRIS
aabbcc
Your satellite tracking list
Your tracking list is empty




NASA's NSSDC Master Catalog

Two Line Element Set (TLE):
1 45822U 11037BG  21296.97258861  .00002306  00000-0  12378-2 0  9993
2 45822  51.5127 156.0081 1692603 304.2193  40.9371 11.43662732 58051
Source of the keplerian elements: AFSPC